Total_Precipitation_Accumulation
0.01 0.02 0.04 0.08 0.08 0.06 0.08 0.14 0.25 0.19 0.16 0.19 0.20 0.20 0.24 0.25 0.21 0.17 0.16 0.14 0.15 0.18 0.21 0.25 0.25 0.22 0.19 0.17 0.17 0.23 0.27 0.34 0.44 0.39 0.32 0.29 0.26 0.20 0.17 0.21 0.26 0.38 0.45 0.50
0.01 0.02 0.03 0.06 0.09 0.07 0.05 0.05 0.09 0.12 0.17 0.18 0.18 0.19 0.20 0.19 0.17 0.16 0.16 0.13 0.12 0.14 0.17 0.19 0.16 0.11 0.08 0.08 0.11 0.18 0.24 0.28 0.35 0.34 0.27 0.21 0.17 0.12 0.11 0.16 0.22 0.29 0.32 0.37
0.00 0.01 0.03 0.09 0.09 0.05 0.03 0.02 0.04 0.13 0.21 0.19 0.20 0.19 0.18 0.16 0.14 0.12 0.10 0.08 0.07 0.06 0.06 0.05 0.05 0.04 0.05 0.05 0.06 0.14 0.24 0.31 0.36 0.40 0.40 0.28 0.15 0.12 0.14 0.19 0.25 0.28 0.27 0.26
0.00 0.02 0.12 0.10 0.03 0.02 0.02 0.02 0.03 0.06 0.09 0.10 0.09 0.07 0.06 0.06 0.05 0.03 0.03 0.03 0.03 0.02 0.02 0.02 0.02 0.04 0.07 0.06 0.07 0.12 0.22 0.29 0.32 0.36 0.37 0.33 0.26 0.23 0.25 0.29 0.35 0.36 0.30 0.27
0.01 0.02 0.08 0.04 0.02 0.02 0.04 0.04 0.03 0.03 0.04 0.04 0.04 0.04 0.06 0.03 0.02 0.01 0.01 0.01 0.01 0.02 0.01 0.02 0.02 0.05 0.11 0.12 0.14 0.19 0.28 0.37 0.37 0.39 0.39 0.33 0.30 0.32 0.34 0.38 0.39 0.39 0.33 0.30
0.01 0.02 0.07 0.05 0.04 0.06 0.04 0.11 0.08 0.05 0.04 0.03 0.02 0.08 0.10 0.04 0.01 0.01 0.01 0.01 0.02 0.02 0.02 0.04 0.06 0.10 0.15 0.21 0.26 0.33 0.42 0.48 0.46 0.50 0.51 0.46 0.46 0.46 0.44 0.46 0.41 0.37 0.35 0.38
0.01 0.03 0.04 0.02 0.04 0.04 0.08 0.15 0.04 0.02 0.01 0.01 0.02 0.05 0.05 0.02 0.01 0.01 0.01 0.02 0.03 0.04 0.04 0.06 0.09 0.13 0.22 0.27 0.31 0.35 0.38 0.45 0.52 0.57 0.63 0.67 0.69 0.65 0.59 0.55 0.51 0.47 0.43 0.43
0.03 0.07 0.09 0.02 0.01 0.01 0.04 0.02 0.01 0.01 0.01 0.02 0.02 0.01 0.01 0.01 0.01 0.01 0.02 0.03 0.04 0.06 0.05 0.07 0.10 0.16 0.24 0.27 0.30 0.34 0.39 0.47 0.54 0.58 0.59 0.68 0.90 0.88 0.86 0.80 0.69 0.61 0.57 0.51
0.02 0.04 0.02 0.00 0.00 0.01 0.01 0.01 0.02 0.02 0.01 0.02 0.02 0.02 0.02 0.02 0.02 0.02 0.02 0.03 0.05 0.09 0.11 0.13 0.17 0.28 0.39 0.36 0.37 0.42 0.48 0.54 0.58 0.59 0.64 0.77 0.88 0.92 0.93 0.87 0.76 0.69 0.66 0.64
0.03 0.01 0.00 0.01 0.01 0.01 0.01 0.01 0.01 0.01 0.01 0.02 0.03 0.03 0.03 0.03 0.03 0.04 0.04 0.06 0.09 0.14 0.20 0.28 0.33 0.40 0.49 0.46 0.47 0.52 0.54 0.57 0.60 0.64 0.65 0.71 0.86 0.87 0.85 0.81 0.79 0.76 0.73 0.70
0.03 0.02 0.01 0.01 0.02 0.01 0.00 0.01 0.01 0.01 0.02 0.02 0.03 0.04 0.04 0.04 0.05 0.05 0.06 0.07 0.13 0.21 0.30 0.38 0.46 0.52 0.56 0.59 0.65 0.68 0.63 0.60 0.63 0.67 0.70 0.76 0.82 0.88 0.86 0.80 0.72 0.75 0.74 0.71
0.04 0.04 0.05 0.05 0.03 0.01 0.01 0.01 0.01 0.02 0.02 0.03 0.04 0.05 0.04 0.05 0.05 0.05 0.07 0.08 0.13 0.20 0.30 0.39 0.48 0.55 0.60 0.70 0.82 0.89 0.88 0.77 0.76 0.78 0.80 0.85 0.85 0.76 0.65 0.60 0.49 0.47 0.51 0.55
0.05 0.04 0.04 0.03 0.02 0.01 0.02 0.01 0.02 0.02 0.03 0.03 0.04 0.04 0.05 0.05 0.05 0.06 0.07 0.10 0.16 0.23 0.31 0.37 0.43 0.54 0.64 0.77 0.85 0.89 0.91 0.90 0.84 0.85 0.88 0.87 0.88 0.82 0.72 0.60 0.50 0.43 0.39 0.42
0.02 0.02 0.01 0.01 0.01 0.01 0.01 0.01 0.02 0.03 0.04 0.04 0.05 0.06 0.06 0.07 0.07 0.09 0.11 0.14 0.18 0.25 0.32 0.39 0.46 0.52 0.63 0.75 0.84 0.86 0.85 0.85 0.84 0.86 0.88 0.84 0.82 0.81 0.82 0.75 0.65 0.54 0.42 0.41
0.01 0.01 0.02 0.01 0.01 0.02 0.03 0.04 0.04 0.05 0.05 0.04 0.04 0.05 0.06 0.07 0.09 0.10 0.12 0.16 0.21 0.26 0.31 0.41 0.53 0.59 0.67 0.76 0.80 0.84 0.86 0.86 0.86 0.82 0.80 0.80 0.78 0.75 0.75 0.79 0.73 0.62 0.52 0.48
0.02 0.02 0.03 0.03 0.04 0.05 0.06 0.06 0.06 0.06 0.06 0.06 0.06 0.07 0.08 0.09 0.10 0.11 0.13 0.19 0.28 0.35 0.42 0.52 0.56 0.62 0.77 0.85 0.87 0.87 0.89 0.89 0.92 0.87 0.75 0.74 0.77 0.78 0.76 0.79 0.75 0.63 0.54 0.48
0.05 0.06 0.07 0.07 0.08 0.08 0.08 0.09 0.09 0.09 0.09 0.09 0.08 0.09 0.10 0.12 0.13 0.15 0.17 0.22 0.29 0.34 0.44 0.58 0.59 0.62 0.76 0.90 0.98 0.98 0.90 0.84 0.84 0.85 0.76 0.67 0.67 0.71 0.70 0.70 0.64 0.55 0.47 0.40
0.09 0.11 0.13 0.13 0.14 0.13 0.12 0.12 0.13 0.14 0.15 0.14 0.13 0.13 0.16 0.20 0.23 0.24 0.26 0.29 0.33 0.34 0.37 0.46 0.56 0.64 0.73 0.84 0.93 0.97 0.95 0.89 0.82 0.79 0.76 0.68 0.63 0.63 0.65 0.62 0.52 0.46 0.41 0.35
0.09 0.12 0.14 0.16 0.18 0.19 0.21 0.23 0.24 0.24 0.23 0.23 0.24 0.25 0.26 0.28 0.31 0.33 0.35 0.40 0.51 0.56 0.50 0.49 0.58 0.60 0.68 0.79 0.91 0.90 0.92 0.94 0.87 0.72 0.68 0.68 0.61 0.59 0.52 0.48 0.43 0.39 0.34 0.30
0.14 0.18 0.22 0.25 0.28 0.32 0.35 0.35 0.36 0.36 0.35 0.35 0.35 0.35 0.36 0.35 0.38 0.43 0.47 0.51 0.60 0.70 0.67 0.63 0.58 0.54 0.62 0.78 0.90 0.84 0.79 0.83 0.80 0.68 0.64 0.66 0.58 0.50 0.39 0.37 0.34 0.31 0.29 0.25
0.20 0.24 0.28 0.31 0.33 0.36 0.39 0.41 0.42 0.41 0.38 0.37 0.39 0.41 0.41 0.39 0.41 0.50 0.64 0.68 0.61 0.66 0.67 0.65 0.58 0.56 0.59 0.76 0.82 0.81 0.75 0.72 0.72 0.65 0.58 0.55 0.50 0.42 0.33 0.32 0.30 0.26 0.23 0.20
0.20 0.23 0.26 0.27 0.28 0.28 0.27 0.29 0.30 0.30 0.29 0.29 0.32 0.36 0.43 0.45 0.44 0.49 0.57 0.68 0.70 0.73 0.66 0.63 0.60 0.58 0.56 0.66 0.72 0.78 0.79 0.72 0.67 0.58 0.51 0.44 0.41 0.36 0.30 0.28 0.24 0.17 0.15 0.15
0.13 0.14 0.15 0.16 0.16 0.15 0.12 0.13 0.18 0.23 0.25 0.27 0.31 0.40 0.53 0.55 0.55 0.64 0.64 0.57 0.65 0.66 0.61 0.59 0.57 0.55 0.51 0.53 0.63 0.70 0.76 0.72 0.67 0.56 0.46 0.38 0.31 0.27 0.23 0.21 0.17 0.12 0.11 0.11
0.04 0.04 0.05 0.06 0.07 0.10 0.11 0.13 0.16 0.19 0.22 0.26 0.28 0.38 0.58 0.70 0.65 0.60 0.58 0.57 0.55 0.50 0.48 0.48 0.43 0.42 0.43 0.43 0.52 0.59 0.65 0.67 0.66 0.55 0.45 0.36 0.27 0.24 0.22 0.18 0.14 0.13 0.12 0.09
0.03 0.03 0.04 0.07 0.12 0.19 0.25 0.25 0.23 0.22 0.27 0.30 0.29 0.37 0.52 0.66 0.74 0.66 0.54 0.47 0.45 0.41 0.40 0.38 0.35 0.38 0.40 0.42 0.49 0.57 0.63 0.63 0.63 0.56 0.46 0.36 0.29 0.25 0.22 0.19 0.16 0.13 0.11 0.08
0.04 0.05 0.08 0.12 0.19 0.30 0.36 0.37 0.38 0.39 0.46 0.51 0.49 0.51 0.58 0.58 0.61 0.59 0.49 0.40 0.36 0.38 0.38 0.37 0.33 0.33 0.36 0.43 0.47 0.54 0.61 0.61 0.57 0.51 0.40 0.33 0.27 0.24 0.22 0.18 0.15 0.13 0.10 0.07
0.07 0.10 0.15 0.19 0.26 0.35 0.41 0.47 0.54 0.58 0.66 0.76 0.80 0.73 0.70 0.67 0.62 0.53 0.44 0.36 0.33 0.33 0.35 0.34 0.31 0.29 0.32 0.38 0.45 0.52 0.53 0.52 0.48 0.43 0.41 0.36 0.31 0.28 0.25 0.19 0.16 0.13 0.10 0.09